Location: Newark
(37.8333°N, 119.5000°W)
Time: 14:57:36
(UTC+00:00)

Tiros 1 despin weight - Pass Details

Date: 21 August 2019
Orbit: 594 x 642 km, 48.2° (Epoch: 19 September)

Event Time Altitude Azimuth Distance (km) Brightness Sun altitude
Rises 11:29:39 0° 301° (WNW) 2,872 - -20.2°
Exits shadow 11:31:28 - 310° (NW) 2,242 ? -19.9°
Reaches altitude 10° 11:32:19 10° 315° (NW) 1,975 ? -19.8°
Maximum altitude 11:36:01 24° 10° (N) 1,286 ? -19.2°
Drops below altitude 10° 11:39:47 10° 65° (ENE) 1,999 ? -18.6°
Sets 11:42:29 0° 79° (E) 2,914 ? -18.1°
